Startpagina
METAR-TAF:

METAR-TAF

Vliegvelden :

Productieplatform

Hoorn-a, Nederland

breedte: 52-55-05N, lengte: 4-09-01E, hoogte: 41 m

Actueel weer

Dit bericht is 26 minuten geleden gemaakt, om 03:25 UTC
Wind 9 kt uit het zuiden
Temperatuur 19°C
Vochtigheid 88%
Druk 1020 hPa
Zicht 10 km of meer
Weinig wolken op 900 ft

METAR: EHQE 210325Z AUTO 17009KT 9999 FEW009 19/17 Q1020 W///H///

Tijdstip: 05:51 (03:51 UTC)


TAF: ontbreekt

Waarnemingen en weersverwachtingen van meer dan 4000 vliegvelden (METAR en TAF).

De beschikbare stations zijn de gele en rode punten op de kaart.

Ga met uw muis naar het station om de naam te zien.

Klik dan om waarnemingen en weersverwachtingen te zien.

kaart wijzigen: klik op de groene knoppen met een zwart kruis om in te zoomen, op de groene knop met een streepje om uit te zoomen of op de groene pijlen voor aangrenzende kaarten.


METAR-TAF: